AO-07 1 07530U 74089B 26150.59921147 -.00000035 00000-0 69991-4 0 9992 2 07530 101.9903 163.6623 0012392 163.0393 311.3733 12.53697802358313 UO-11 1 14781U 84021B 26150.83698025 .00001522 00000-0 16069-3 0 9996 2 14781 97.8048 116.6072 0006231 234.9595 125.1039 14.90736305254540 AO-27 1 22825U 93061C 26150.65872191 .00000145 00000-0 72300-4 0 9997 2 22825 98.6885 218.0778 0009058 145.8162 214.3605 14.30937002704491 FO-29 1 24278U 96046B 26150.86233892 -.00000014 00000-0 18807-4 0 9997 2 24278 98.5255 2.1066 0350516 141.2806 221.4026 13.53273512470826 GO-32 1 25397U 98043D 26150.85483566 .00000077 00000-0 53422-4 0 9993 2 25397 99.0064 143.1769 0000219 260.9333 99.1820 14.24424689448868 ISS 1 25544U 98067A 26150.83995330 .00011335 00000-0 20978-3 0 9996 2 25544 51.6338 25.9780 0007215 115.7878 244.3855 15.49504954569064 NO-44 1 26931U 01043C 26150.83762066 .00000170 00000-0 94367-4 0 9992 2 26931 67.0511 289.1447 0006135 264.0006 96.0397 14.31948970287963 SO-50 1 27607U 02058C 26150.48779528 .00001244 00000-0 16366-3 0 9997 2 27607 64.5508 183.7455 0075560 265.7135 93.5335 14.83004849261836 CO-55 1 27844U 03031E 26150.54535265 .00000367 00000-0 17766-3 0 9997 2 27844 98.6737 159.3263 0008514 232.2802 127.7606 14.24323791189163 RS-22 1 27939U 03042A 26150.83805598 .00001835 00000-0 29091-3 0 9990 2 27939 98.3463 334.7078 0010612 330.1020 146.7860 14.73435294212993 CO-65 1 32785U 08021C 26150.87964265 .00006895 00000-0 43648-3 0 9993 2 32785 97.8267 131.9415 0010808 88.8154 271.4312 15.09269731982586 CO-66 1 32791U 08021J 26150.50529315 .00021088 00000-0 68228-3 0 9995 2 32791 97.7511 147.5679 0003551 49.7745 310.3805 15.32079827984581 RS-30 1 32953U 08025A 26150.87616073 .00000010 00000-0 35664-5 0 9999 2 32953 82.5056 6.2107 0019600 352.3790 7.6989 12.43178433817541 SRMSAT 1 37841U 11058D 26150.42249269 .00000411 00000-0 79549-4 0 9994 2 37841 19.9700 166.9966 0011796 9.7211 131.6550 14.11571540755308 ZACUBE-1 1 39417U 13066B 26150.87627542 .00005765 00000-0 44830-3 0 9990 2 39417 97.8106 113.1193 0039999 309.1134 50.6535 15.01053962678137 Delfi-N3xt 1 39428U 13066N 26150.84262911 .00007929 00000-0 69486-3 0 9992 2 39428 97.8346 71.1722 0073075 264.4618 94.8265 14.94880180672033 GOMX-1 1 39430U 13066Q 26150.82164402 .00003048 00000-0 46021-3 0 9997 2 39430 97.6495 352.3815 0129866 132.7970 228.4244 14.69385487667368 LO-74 1 39440U 13066AA 26150.84690824 .00005204 00000-0 48184-3 0 9990 2 39440 97.8898 99.7552 0059314 85.0571 275.7416 14.93605945674405 AO-73 1 39444U 13066AE 26150.88638683 .00008594 00000-0 53648-3 0 9999 2 39444 97.8260 121.9749 0034564 262.2658 97.4645 15.09250694677055 DTUSAT-2 1 40030U 14033W 26150.53591537 .00009633 00000-0 52284-3 0 9995 2 40030 98.0855 147.1461 0006304 301.5746 58.4869 15.14763468650014 LILACSAT-2 1 40908U 15049K 26150.85443514 .00021692 00000-0 37702-3 0 9990 2 40908 97.4662 187.0434 0005623 328.9891 31.1028 15.50820007593066 Horyu-4 1 41340U 16012D 26150.48275355 .00270529 00000-0 11013-2 0 9998 2 41340 30.9857 207.8812 0002421 158.6606 201.4154 15.84355645567994 Lapan A3 1 41603U 16040E 26150.89410498 .00004337 00000-0 13820-3 0 9996 2 41603 97.1480 147.6101 0012199 80.0279 280.2340 15.32984793552162 CAS-2T 1 41847U 16066G 26150.78633175 .00001872 00000-0 27072-3 0 9996 2 41847 98.3824 226.7206 0342018 182.1768 177.7955 14.44632524502289 TechnoSat 1 42829U 17042E 26150.82851492 .00004194 00000-0 29986-3 0 9997 2 42829 97.4269 309.1511 0018785 148.2106 212.0259 15.04843979484091 AO-91 1 43017U 17073E 26150.61112050 .00012250 00000-0 53366-3 0 9999 2 43017 97.4731 18.1891 0152418 29.9783 331.0066 15.12376389462731 S-Net D 1 43186U 18014G 26150.71344546 .00006201 00000-0 32149-3 0 9995 2 43186 97.5384 55.6146 0010093 81.5321 278.7055 15.16487322456110 S-Net B 1 43187U 18014H 26150.72455840 .00006511 00000-0 33757-3 0 9997 2 43187 97.5390 55.6117 0010722 77.4722 282.7709 15.16458570456118 S-Net A 1 43188U 18014J 26150.77839809 .00006178 00000-0 32016-3 0 9990 2 43188 97.5399 55.8707 0010606 77.9708 282.2713 15.16495562456128 S-Net C 1 43189U 18014K 26150.66235911 .00006730 00000-0 34876-3 0 9993 2 43189 97.5418 55.8273 0011912 71.8314 288.4214 15.16449380454653 Ten-Koh 1 43677U 18084G 26150.48022093 .00003936 00000-0 29835-3 0 9991 2 43677 98.0761 342.0969 0009731 173.5889 186.5461 15.02851275413504 PO-101 1 43678U 18084H 26150.83056016 .00003365 00000-0 27290-3 0 9992 2 43678 98.1143 346.2891 0011768 228.5022 131.5191 15.00361729413613 QO-100 1 43700U 18090A 26150.79340793 .00000157 00000-0 00000 0 0 9990 2 43700 0.0183 317.7409 0001805 136.5877 105.3947 1.00270558 27501 MinXSS-2 1 43758U 18099A 26150.81352698 .00042002 00000-0 86934-3 0 9991 2 43758 97.4548 226.6047 0006116 332.0503 28.0416 15.45647117411449 AO-95 1 43770U 18099N 26150.64122480 .00015077 00000-0 58270-3 0 9994 2 43770 97.4396 210.9562 0009764 58.0053 302.2133 15.26291710410545 SNUSat 2 1 43782U 18099AA 26150.57868672 .00010522 00000-0 46923-3 0 9991 2 43782 97.4070 204.2354 0010068 7.3039 352.8342 15.21540850410351 SnugLite 1 43784U 18099AC 26150.58140116 .00015041 00000-0 57402-3 0 9995 2 43784 97.3881 205.0386 0002722 26.6357 333.5021 15.26750536410631 ITASat 1 1 43786U 18099AE 26150.56418294 .00009422 00000-0 45471-3 0 9999 2 43786 97.4037 202.4292 0013836 59.3080 300.9516 15.18804262410238 EAGLET 1 1 43790U 18099AJ 26150.72377588 .00005162 00000-0 29722-3 0 9990 2 43790 97.4241 200.8556 0012383 52.6855 307.5503 15.12791552409695 ESEO 1 43792U 18099AL 26150.55208341 .00001644 00000-0 12238-3 0 9998 2 43792 97.3981 188.6962 0013287 41.4267 318.7964 15.04187264409154 JO-97 1 43803U 18099AX 26150.14963961 .00022375 00000-0 70257-3 0 9991 2 43803 97.4140 212.9285 0004668 349.6611 10.4534 15.33015809410869 Suomi 100 1 43804U 18099AY 26150.59266666 .00016564 00000-0 60817-3 0 9993 2 43804 97.4199 211.0555 0009226 351.1324 8.9751 15.27974158410731 ISAT 1 43879U 18111D 26150.75644169 .00092022 00000-0 10429-2 0 9992 2 43879 97.5900 84.6790 0004652 52.4075 307.7604 15.62079127408444 UWE-4 1 43880U 18111E 26150.34581630 .00045687 00000-0 96821-3 0 9998 2 43880 97.5862 77.9309 0008920 44.6920 315.5045 15.44911436408026 Sparrow 1 43881U 18111F 26150.81634840 .00140391 00000-0 11789-2 0 9990 2 43881 97.6133 90.0735 0005799 92.2567 267.9359 15.69454102408640 Prox-1 1 44339U 19036A 26150.58289545 .00015753 00000-0 15578-2 0 9991 2 44339 23.9947 231.8121 0005910 182.1526 177.8948 14.90153476370843 Taurus 1 1 44530U 19059C 26150.84119161 .00008281 00000-0 13296-2 0 9997 2 44530 98.6401 314.5972 0008300 15.7755 344.3707 14.71889674356094 TO-108 1 44881U 19093C 26150.81254219 .00001172 00000-0 13831-3 0 9993 2 44881 97.7537 223.4679 0014487 139.6073 220.6222 14.86486180348839 RS-44 1 44909U 19096E 26150.57067963 .00000031 00000-0 76848-4 0 9999 2 44909 82.5221 351.4139 0217364 185.2973 174.5828 12.79748548300094 SALSAT 1 46495U 20068K 26150.54880527 .00010252 00000-0 36063-3 0 9998 2 46495 97.8845 152.5438 0009937 15.6059 344.5484 15.29513109312669 CSS (TIANHE-1) 1 48274U 21035A 26150.82458383 .00021542 00000-0 26142-3 0 9993 2 48274 41.4695 67.6061 0010511 311.2281 48.7651 15.60030932290458 CUTE 1 49263U 21088D 26150.69279602 .00334741 00000-0 13625-2 0 9999 2 49263 97.4204 248.3774 0005594 260.6232 99.4406 15.85325477259770 TeikyoSat 4 1 49396U 21102B 26150.55379466 .00002789 00000-0 17791-3 0 9990 2 49396 97.3678 180.7228 0011936 2.3794 357.7491 15.09439899250062 Z-Sat 1 49399U 21102E 26150.86374612 .00004668 00000-0 23140-3 0 9998 2 49399 97.3332 186.7132 0015136 312.0134 47.9810 15.18118583250817 KOSEN 1 1 49402U 21102H 26150.83841197 .00009308 00000-0 35778-3 0 9993 2 49402 97.3195 193.3349 0011935 267.7998 92.1874 15.26569866251377 HO-113 1 50466U 21131B 26150.83855095 .00000815 00000-0 26555-3 0 9996 2 50466 98.4975 243.3227 0004954 138.1199 222.0369 14.41340008232615 SNUGLITE 2 1 52899U 22065F 26150.81158095 .00001264 00000-0 24860-3 0 9995 2 52899 98.2179 295.6755 0008759 81.1315 279.0879 14.64311199208458 UmKA 1 (RS40S) 1 57172U 23091G 26150.85415249 .00008250 00000-0 37871-3 0 9993 2 57172 97.5061 209.6198 0013119 173.2855 186.8558 15.20594780161373 CubeBel-2 (EU11S) 1 57175U 23091K 26150.84038227 .00015763 00000-0 56617-3 0 9998 2 57175 97.5063 213.9072 0010538 168.5368 191.6114 15.28696757161653 RS-38S 1 57189U 23091Z 26150.81577116 .00020610 00000-0 59988-3 0 9996 2 57189 97.5103 219.9599 0008767 129.3279 230.8743 15.35412479162021 SONATE-2 1 59112U 24043Q 26150.86186249 .00042275 00000-0 57734-3 0 9998 2 59112 97.5514 300.2149 0006089 257.1989 102.8585 15.57341775125196 GRBBeta 1 60237U 24128C 26150.76445963 .00006176 00000-0 42169-3 0 9998 2 60237 61.9908 277.3872 0043025 131.0667 229.4156 15.06491262103646 Curium One 1 60242U 24128H 26150.71551616 .00011527 00000-0 66126-3 0 9997 2 60242 61.9794 267.6439 0042222 127.3733 233.1220 15.12225661103814 ROBUSTA-3A 1 60243U 24128J 26150.60451922 .00012175 00000-0 71289-3 0 9991 2 60243 61.9874 270.4108 0043698 124.8572 235.6644 15.11395124103762 CatSat 1 60246U 24125J 26150.66548819 .00059797 00000-0 83154-3 0 9994 2 60246 97.2099 2.9649 0021439 243.1073 116.7992 15.56520210104664 HYPERVIEW-1G (RS66S) 1 61772U 24199AP 26150.76565875 .00137788 00000-0 10720-2 0 9997 2 61772 97.2913 29.6616 0003210 0.0683 0.0579 15.71321269131934 AO-123 1 61781U 24199AY 26150.57025945 .00010307 00000-0 30106-3 0 9993 2 61781 97.3024 19.4019 0014311 19.6406 340.5386 15.35393283131220 JINJUSat 1B 1 63210U 25052A 26150.65508420 .00020960 00000-0 66085-3 0 9995 2 63210 97.4030 47.3933 0004825 128.2153 231.9524 15.32897722 67417 NUSHSAT 1 1 63211U 25052B 26150.66096854 .00026229 00000-0 76765-3 0 9990 2 63211 97.4010 47.9064 0004633 127.5764 232.5900 15.35214607 67451 TEVEL2-4 1 63213U 25052D 26149.65981025 .00024157 00000-0 73793-3 0 9998 2 63213 97.3939 46.0285 0003623 137.7072 222.4450 15.33880799 67277 TEVEL2-5 1 63214U 25052E 26150.65692062 .00022929 00000-0 70316-3 0 9994 2 63214 97.3930 46.9794 0003667 137.7986 222.3539 15.33767956 67428 TEVEL2-6 1 63215U 25052F 26150.66883053 .00023259 00000-0 71407-3 0 9997 2 63215 97.3932 46.9754 0003781 137.5030 222.6505 15.33729697 67428 TEVEL2-1 1 63217U 25052H 26150.62664993 .00021973 00000-0 68572-3 0 9995 2 63217 97.3904 46.5784 0003507 146.2800 213.8666 15.33220237 67400 TEVEL2-3 1 63218U 25052J 26150.62190279 .00022012 00000-0 68585-3 0 9996 2 63218 97.3906 46.5937 0003454 147.4265 212.7190 15.33270900 67404 TEVEL2-2 1 63219U 25052K 26150.23546901 .00024732 00000-0 77147-3 0 9996 2 63219 97.3906 46.1895 0003384 149.0938 211.0504 15.33211783 67349 TEVEL2-9 1 63237U 25052AD 26150.64742610 .00020059 00000-0 66467-3 0 9997 2 63237 97.3967 46.0142 0005775 184.0886 176.0309 15.31304370 67343 TEVEL2-7 1 63238U 25052AE 26150.68505252 .00019186 00000-0 64141-3 0 9997 2 63238 97.3972 45.9743 0005936 184.7576 175.3609 15.31025705 67344 TEVEL2-8 1 63239U 25052AF 26150.69311718 .00019488 00000-0 65178-3 0 9997 2 63239 97.3969 45.9607 0005920 184.7609 175.3577 15.31009313 67341 SPIRONE 1 66657U 25274H 26150.36653340 .00003096 00000-0 29929-3 0 9996 2 66657 97.7487 79.9137 0013844 75.4824 284.7930 14.93465081 27564 K-HERO 1 66660U 25274L 26150.57706759 .00002261 00000-0 21759-3 0 9992 2 66660 97.7495 80.2695 0015636 78.3882 281.9092 14.93886381 27601 SNUGLITE-III DURI 1 66661U 25274M 26150.36442586 .00002908 00000-0 27791-3 0 9995 2 66661 97.7494 80.0796 0016354 80.0863 280.2202 14.93936390 27575 SAKHACUBE-CHOLBON 1 67290U 25313AU 26150.44079064 .00014093 00000-0 57422-3 0 9996 2 67290 97.3939 225.7012 0010448 64.5723 295.6594 15.24529671 23275 RS95S (QMR-KWT-2) 1 67291U 25313AV 26150.18219484 .00020165 00000-0 79009-3 0 9992 2 67291 97.3945 225.5858 0009981 65.1634 295.0641 15.25768544 23246 Ten-Koh2 1 68261U 25241B 26150.11146687 .00009123 00000-0 38851-3 0 9998 2 68261 51.6647 45.6403 0006603 89.4123 270.7612 15.23658557 12159 JACK-002 1 68417U 26067B 26150.83960157 .00008942 00000-0 42847-3 0 9991 2 68417 97.4557 109.6487 0002260 33.7174 326.4204 15.19152059 9317 DISCO 2 1 68431U 26067R 26150.85682852 .00009660 00000-0 46748-3 0 9994 2 68431 97.4592 109.6556 0004118 73.7298 286.4389 15.18779284 9317 HADES-SA (SpinnyONE) 1 68446U 26067AG 26150.43268680 .00022079 00000-0 10737-2 0 9990 2 68446 97.4403 109.0052 0009155 126.3087 233.8994 15.18388353 9238 PARUS-6U1 1 68456U 26067AS 26150.84537676 .00007382 00000-0 37328-3 0 9996 2 68456 97.4544 109.4793 0007371 116.3068 243.8924 15.17313233 9303 SAL-E 1 68458U 26067AU 26150.84317274 .00010232 00000-0 51341-3 0 9997 2 68458 97.4470 109.4248 0007550 123.6590 236.5365 15.17481897 9308 FSI-SAT 2 1 68792U 26088A 26150.35519511 .00006846 00000-0 46413-3 0 9995 2 68792 97.5047 300.0665 0015007 163.5844 196.5873 15.06672115 5604 OrigamiSat 2 1 68795U 26088D 26150.65055763 .00004553 00000-0 29684-3 0 9999 2 68795 97.5059 300.4438 0017576 136.9176 223.3431 15.08263730 5652 ARICA 2 1 68796U 26088E 26150.84687913 .00005837 00000-0 37948-3 0 9997 2 68796 97.5032 300.6317 0016808 135.1945 225.0644 15.08262231 5687 WASEDA-SAT-ZERO-II 1 68797U 26088F 26150.84472375 .00008425 00000-0 54354-3 0 9998 2 68797 97.5029 300.6341 0016679 135.2182 225.0396 15.08412602 5684 MANGARO-II-Piscus 1 68798U 26088G 26150.83722907 .00006128 00000-0 39363-3 0 9998 2 68798 97.5043 300.6485 0020120 138.2751 222.0017 15.08636079 5684 IO-86 1 40931U 25360.30710720 .00000000 00000-0 12800-3 0 00 2 40931 6.0006 332.5373 0012733 338.8432 8.1437 14.79075515 01 LILIUM-4 1 71922C 26067AC 26089.50133053 -.00014632 00000 0 -74472-3 0 04 2 71922 97.4497 49.1617 0004341 5.9603 355.7042 15.16896692 16